Location: Pedholt
(56.0260°N, 10.2097°E)
Time: 21:05:30
(UTC+00:00)

Tiros 1 - Pass Details

Date: 07 August 2021
Orbit: 630 x 663 km, 48.4° (Epoch: 19 September)

Event Time Altitude Azimuth Distance (km) Brightness Sun altitude
Rises 15:34:25 0° 218° (SW) 2,987 11.3 28.7°
Reaches altitude 10° 15:37:14 10° 203° (SSW) 2,074 10.3 28.3°
Maximum altitude 15:40:46 21° 155° (SSE) 1,480 9.0 27.9°
Drops below altitude 10° 15:44:19 10° 107° (ESE) 2,069 9.4 27.4°
Sets 15:47:07 0° 91° (E) 2,977 10.0 27.0°
